Flag for U.S.A. Weather past 2 weeks in Leawood, Kansas, U.S.A.

Now
22 °F

Light snow. Ice fog.


Feels Like: 14 °F
Forecast: 23 / 33 °F
Wind: 6 mph from East

Location: Johnson County Executive Airport

Current Time: Feb 28, 2015 at 6:39:28 PM

Latest Report: Feb 28, 2015 at 5:53 PM


Visibility: 2 mi

Pressure: 30.40 "Hg

Humidity: 89%

Dew point: 19 °F

Location of LeawoodLocation

Historic Weather in Leawood — Graph

°F

Leawood temperature yesterday

Maximum temperature yesterday: 19 °F (at 3:53 PM)
Minimum temperature yesterday: 4 °F (at 4:53 AM)
Average temperature yesterday: 12 °F

Past Weeks' High & Low Weather Summary

 TemperatureHumidityPressure
High52 °F (Feb 25, 1:53 PM)100% (Feb 20, 9:53 PM)30.80 "Hg (Feb 20, 9:53 PM)
Low4 °F (Feb 27, 4:53 AM)23% (Feb 14, 1:53 PM)29.72 "Hg (Feb 25, 3:53 PM)
Average22 °F63%30.28 "Hg
* Reported Feb 13 4:53 PM — Feb 28 4:53 PM, Leawood, Weather by CustomWeather, © 2015

Note: Actual official high and low records may vary slightly from our data, if they occured in-between our weather recording intervals... More about our weather records

Advertising

Leawood weather history for previous 24 hours

 ConditionsComfort  
Time TempWeatherWind HumidityBarometerVisibility
4:53 PM
Sat, Feb 28
22 °FLight snow. Ice fog.6 mph85%30.41 "Hg1 mi
3:53 PM22 °FMore clouds than sun.6 mph85%30.43 "Hg10 mi
2:59 PM22 °FLight snow. Ice fog.8 mph85%30.38 "Hg2 mi
1:53 PM21 °FLight snow. Ice fog.6 mph88%30.46 "Hg1 mi
12:53 PM20 °FSnow. Ice fog.8 mph89%30.48 "Hg1 mi
11:53 AM20 °FLight snow. Ice fog.7 mph89%30.51 "Hg1 mi
10:53 AM19 °FLight snow. Ice fog.8 mph88%30.53 "Hg1 mi
9:53 AM18 °FLight snow. Ice fog.8 mph88%30.55 "Hg1 mi
8:53 AM19 °FLight snow. Mostly cloudy.9 mph71%30.55 "Hg1 mi
7:53 AM18 °FMostly cloudy.8 mph68%30.53 "Hg10 mi
6:53 AM17 °FOvercast.6 mph68%30.53 "Hg10 mi
5:53 AM17 °FOvercast.7 mph68%30.55 "Hg10 mi
4:53 AM17 °FOvercast.7 mph68%30.54 "Hg10 mi
3:53 AM16 °FOvercast.6 mph67%30.53 "Hg10 mi
2:53 AM17 °FOvercast.7 mph64%30.55 "Hg10 mi
1:53 AM17 °FOvercast.6 mph62%30.56 "Hg10 mi
12:53 AM17 °FOvercast.5 mph59%30.56 "Hg10 mi
11:53 PM
Fri, Feb 27
17 °FOvercast.7 mph59%30.58 "Hg10 mi
10:53 PM17 °FOvercast.7 mph56%30.58 "Hg10 mi
9:53 PM17 °FOvercast.8 mph54%30.60 "Hg10 mi
8:53 PM18 °FOvercast.6 mph49%30.59 "Hg10 mi
7:53 PM18 °FOvercast.6 mph49%30.59 "Hg10 mi
6:53 PM18 °FOvercast.5 mph47%30.59 "Hg10 mi
Weather by CustomWeather, © 2015

See weather overviewHow to use our weather pages